QPF
0.00 0.00 0.01 0.00 0.00 0.00 0.00 0.00 0.00 0.00 0.00 0.00 0.00 0.00 0.00 0.00 0.00 0.00 0.00 0.00 0.00 0.00 0.01 0.03 0.03 0.03 0.02 0.02 0.01 0.01 0.01 0.00 0.01 0.01 0.01 0.00 0.01 0.01 0.02 0.02 0.01 0.01 0.01 0.01 0.01 0.01 0.00 0.00 0.00
0.00 0.01 0.01 0.01 0.00 0.00 0.00 0.00 0.00 0.00 0.00 0.00 0.00 0.00 0.00 0.00 0.00 0.00 0.01 0.01 0.00 0.00 0.01 0.02 0.03 0.02 0.02 0.02 0.01 0.01 0.01 0.01 0.01 0.01 0.01 0.01 0.01 0.01 0.02 0.02 0.01 0.01 0.01 0.01 0.01 0.00 0.00 0.00 0.00
0.01 0.01 0.01 0.01 0.00 0.00 0.00 0.00 0.00 0.00 0.00 0.00 0.00 0.00 0.00 0.00 0.00 0.00 0.01 0.01 0.01 0.01 0.01 0.02 0.03 0.03 0.03 0.02 0.02 0.01 0.01 0.01 0.01 0.01 0.02 0.02 0.01 0.01 0.01 0.02 0.01 0.01 0.00 0.00 0.00 0.00 0.00 0.00 0.00
0.01 0.01 0.01 0.01 0.00 0.00 0.00 0.00 0.00 0.00 0.00 0.00 0.00 0.00 0.00 0.00 0.00 0.00 0.01 0.01 0.01 0.01 0.01 0.02 0.02 0.03 0.03 0.03 0.02 0.02 0.02 0.02 0.01 0.01 0.01 0.02 0.02 0.01 0.01 0.01 0.01 0.00 0.00 0.00 0.00 0.00 0.00 0.00 0.00
0.02 0.02 0.01 0.00 0.00 0.00 0.00 0.00 0.00 0.00 0.00 0.00 0.00 0.00 0.00 0.00 0.00 0.01 0.01 0.01 0.01 0.01 0.01 0.02 0.02 0.03 0.03 0.03 0.04 0.03 0.02 0.01 0.01 0.02 0.02 0.02 0.03 0.02 0.01 0.00 0.00 0.00 0.00 0.00 0.00 0.00 0.00 0.00 0.00
0.02 0.02 0.00 0.00 0.00 0.00 0.00 0.00 0.00 0.00 0.00 0.01 0.01 0.00 0.00 0.01 0.01 0.01 0.02 0.02 0.02 0.02 0.02 0.02 0.03 0.03 0.04 0.04 0.04 0.04 0.03 0.02 0.02 0.02 0.02 0.02 0.02 0.01 0.00 0.00 0.00 0.00 0.00 0.00 0.00 0.00 0.00 0.00 0.00
0.02 0.01 0.00 0.00 0.00 0.00 0.00 0.00 0.00 0.00 0.00 0.01 0.01 0.00 0.01 0.02 0.01 0.02 0.02 0.02 0.02 0.03 0.03 0.03 0.03 0.03 0.04 0.04 0.04 0.04 0.04 0.04 0.03 0.02 0.02 0.01 0.01 0.01 0.00 0.00 0.00 0.00 0.01 0.00 0.00 0.00 0.00 0.00 0.00
0.02 0.01 0.00 0.00 0.00 0.00 0.00 0.00 0.00 0.00 0.00 0.01 0.01 0.00 0.01 0.02 0.02 0.02 0.03 0.03 0.03 0.03 0.03 0.03 0.02 0.02 0.03 0.03 0.03 0.04 0.04 0.04 0.04 0.04 0.03 0.02 0.02 0.01 0.01 0.00 0.00 0.01 0.01 0.01 0.00 0.00 0.00 0.00 0.00
0.04 0.02 0.00 0.00 0.00 0.00 0.00 0.00 0.00 0.00 0.00 0.01 0.01 0.00 0.00 0.01 0.03 0.03 0.04 0.05 0.04 0.04 0.03 0.02 0.02 0.01 0.02 0.03 0.03 0.04 0.04 0.04 0.04 0.04 0.03 0.03 0.04 0.03 0.02 0.01 0.01 0.01 0.02 0.01 0.01 0.01 0.00 0.00 0.00
0.05 0.02 0.00 0.00 0.00 0.00 0.00 0.00 0.00 0.00 0.00 0.01 0.01 0.01 0.01 0.03 0.04 0.04 0.03 0.04 0.04 0.04 0.03 0.02 0.02 0.01 0.01 0.02 0.03 0.03 0.03 0.04 0.03 0.03 0.03 0.03 0.03 0.03 0.03 0.02 0.02 0.02 0.02 0.02 0.02 0.01 0.01 0.00 0.00
0.04 0.01 0.00 0.00 0.00 0.00 0.00 0.00 0.00 0.00 0.00 0.01 0.01 0.01 0.02 0.04 0.05 0.04 0.02 0.02 0.03 0.03 0.03 0.02 0.02 0.02 0.02 0.02 0.02 0.02 0.03 0.03 0.03 0.03 0.03 0.03 0.04 0.04 0.04 0.02 0.02 0.02 0.02 0.03 0.03 0.02 0.00 0.00 0.00
0.02 0.01 0.00 0.00 0.00 0.00 0.00 0.00 0.00 0.00 0.00 0.01 0.01 0.01 0.02 0.04 0.06 0.04 0.03 0.03 0.03 0.04 0.03 0.02 0.02 0.03 0.02 0.01 0.01 0.02 0.02 0.03 0.03 0.03 0.03 0.03 0.04 0.04 0.04 0.03 0.02 0.02 0.03 0.03 0.02 0.01 0.01 0.00 0.00
0.01 0.01 0.01 0.00 0.00 0.00 0.00 0.00 0.00 0.00 0.00 0.01 0.01 0.01 0.02 0.05 0.08 0.05 0.04 0.04 0.04 0.03 0.03 0.02 0.01 0.02 0.03 0.02 0.01 0.01 0.02 0.02 0.02 0.03 0.02 0.02 0.02 0.03 0.03 0.03 0.03 0.03 0.03 0.04 0.03 0.03 0.02 0.01 0.00
0.01 0.01 0.01 0.00 0.00 0.00 0.00 0.00 0.00 0.00 0.01 0.02 0.02 0.02 0.02 0.05 0.09 0.06 0.05 0.05 0.04 0.03 0.03 0.03 0.02 0.02 0.03 0.04 0.02 0.01 0.01 0.02 0.02 0.02 0.02 0.01 0.01 0.02 0.02 0.02 0.02 0.02 0.03 0.04 0.04 0.04 0.05 0.03 0.01
0.02 0.02 0.01 0.01 0.00 0.00 0.00 0.00 0.00 0.01 0.01 0.01 0.02 0.03 0.04 0.06 0.09 0.08 0.05 0.05 0.04 0.04 0.05 0.05 0.04 0.03 0.03 0.04 0.04 0.02 0.01 0.01 0.02 0.02 0.02 0.02 0.02 0.02 0.02 0.02 0.01 0.01 0.02 0.03 0.04 0.05 0.06 0.06 0.04
0.04 0.04 0.02 0.01 0.01 0.00 0.00 0.00 0.00 0.01 0.01 0.01 0.02 0.02 0.03 0.05 0.08 0.09 0.08 0.05 0.05 0.05 0.05 0.06 0.06 0.06 0.04 0.03 0.04 0.04 0.03 0.02 0.02 0.03 0.04 0.03 0.02 0.02 0.03 0.02 0.02 0.02 0.02 0.02 0.02 0.03 0.04 0.05 0.06
0.05 0.04 0.02 0.01 0.01 0.01 0.00 0.00 0.00 0.01 0.01 0.01 0.02 0.02 0.03 0.04 0.06 0.08 0.09 0.06 0.05 0.04 0.03 0.04 0.05 0.05 0.04 0.04 0.03 0.03 0.03 0.03 0.03 0.03 0.03 0.02 0.02 0.01 0.02 0.02 0.02 0.02 0.02 0.03 0.02 0.03 0.03 0.04 0.04
0.03 0.02 0.02 0.01 0.01 0.01 0.00 0.00 0.00 0.01 0.01 0.01 0.01 0.02 0.02 0.02 0.04 0.06 0.07 0.08 0.07 0.07 0.05 0.04 0.05 0.06 0.05 0.04 0.04 0.03 0.03 0.02 0.02 0.02 0.02 0.02 0.02 0.02 0.02 0.03 0.02 0.02 0.03 0.04 0.04 0.04 0.05 0.05 0.04
0.02 0.02 0.02 0.02 0.01 0.01 0.00 0.00 0.00 0.01 0.01 0.01 0.02 0.01 0.01 0.01 0.02 0.04 0.06 0.08 0.08 0.07 0.06 0.05 0.05 0.05 0.04 0.04 0.03 0.03 0.03 0.02 0.02 0.02 0.02 0.02 0.02 0.02 0.03 0.04 0.03 0.03 0.03 0.03 0.04 0.05 0.05 0.05 0.04
0.04 0.03 0.03 0.02 0.02 0.02 0.01 0.00 0.00 0.01 0.01 0.01 0.01 0.01 0.01 0.01 0.01 0.02 0.04 0.07 0.07 0.06 0.05 0.04 0.05 0.04 0.04 0.04 0.04 0.05 0.05 0.03 0.03 0.02 0.02 0.02 0.02 0.02 0.02 0.02 0.04 0.04 0.03 0.02 0.03 0.04 0.04 0.04 0.04
0.05 0.04 0.03 0.03 0.03 0.03 0.02 0.01 0.01 0.01 0.01 0.01 0.02 0.02 0.02 0.01 0.01 0.01 0.02 0.05 0.06 0.06 0.05 0.05 0.05 0.05 0.05 0.05 0.06 0.06 0.05 0.04 0.03 0.02 0.02 0.02 0.01 0.02 0.02 0.02 0.03 0.05 0.06 0.05 0.04 0.04 0.04 0.03 0.02
0.05 0.04 0.03 0.04 0.04 0.05 0.05 0.04 0.01 0.01 0.01 0.01 0.01 0.01 0.01 0.01 0.01 0.01 0.01 0.03 0.05 0.06 0.06 0.06 0.06 0.06 0.06 0.06 0.05 0.05 0.05 0.04 0.03 0.03 0.02 0.02 0.02 0.02 0.02 0.02 0.02 0.02 0.03 0.03 0.03 0.02 0.02 0.02 0.01
0.05 0.04 0.03 0.05 0.06 0.07 0.05 0.04 0.02 0.00 0.01 0.01 0.00 0.00 0.01 0.01 0.01 0.01 0.01 0.02 0.04 0.07 0.08 0.07 0.07 0.07 0.06 0.06 0.06 0.07 0.06 0.06 0.05 0.03 0.02 0.01 0.02 0.02 0.01 0.01 0.01 0.01 0.01 0.01 0.01 0.01 0.01 0.01 0.01
0.05 0.06 0.07 0.07 0.11 0.12 0.04 0.04 0.02 0.01 0.01 0.00 0.00 0.00 0.00 0.01 0.01 0.01 0.01 0.01 0.03 0.06 0.08 0.08 0.08 0.07 0.06 0.06 0.06 0.06 0.05 0.04 0.03 0.03 0.02 0.02 0.01 0.01 0.01 0.01 0.01 0.01 0.01 0.00 0.00 0.01 0.00 0.00 0.00
0.07 0.12 0.18 0.20 0.22 0.13 0.03 0.02 0.03 0.01 0.01 0.00 0.00 0.00 0.00 0.00 0.00 0.01 0.01 0.01 0.02 0.04 0.06 0.06 0.07 0.06 0.05 0.04 0.04 0.03 0.03 0.03 0.03 0.03 0.02 0.02 0.01 0.01 0.01 0.01 0.01 0.01 0.01 0.01 0.01 0.00 0.00 0.00 0.00
0.07 0.11 0.14 0.13 0.11 0.06 0.03 0.03 0.02 0.01 0.00 0.00 0.00 0.00 0.00 0.00 0.01 0.01 0.01 0.01 0.02 0.02 0.04 0.05 0.05 0.04 0.04 0.03 0.03 0.02 0.03 0.03 0.03 0.03 0.02 0.02 0.02 0.02 0.02 0.01 0.01 0.01 0.01 0.01 0.01 0.00 0.00 0.00 0.00
0.06 0.08 0.08 0.08 0.05 0.04 0.04 0.03 0.02 0.01 0.00 0.00 0.01 0.01 0.00 0.00 0.00 0.00 0.00 0.01 0.01 0.02 0.02 0.04 0.04 0.04 0.03 0.03 0.02 0.02 0.02 0.02 0.02 0.03 0.02 0.01 0.01 0.01 0.01 0.02 0.01 0.02 0.02 0.01 0.01 0.01 0.00 0.00 0.00
0.05 0.08 0.09 0.10 0.07 0.05 0.04 0.02 0.01 0.01 0.01 0.00 0.00 0.00 0.00 0.00 0.00 0.00 0.00 0.01 0.01 0.02 0.03 0.03 0.04 0.04 0.03 0.03 0.02 0.02 0.02 0.02 0.02 0.02 0.01 0.01 0.01 0.01 0.01 0.01 0.02 0.02 0.02 0.02 0.02 0.02 0.01 0.01 0.01
0.05 0.08 0.09 0.09 0.08 0.05 0.03 0.02 0.01 0.01 0.00 0.00 0.00 0.00 0.00 0.00 0.00 0.00 0.01 0.01 0.01 0.02 0.02 0.03 0.03 0.03 0.02 0.02 0.02 0.02 0.02 0.02 0.02 0.02 0.01 0.01 0.01 0.01 0.01 0.01 0.01 0.02 0.01 0.01 0.02 0.02 0.02 0.02 0.02
0.03 0.05 0.06 0.07 0.07 0.04 0.02 0.02 0.01 0.00 0.00 0.00 0.00 0.00 0.00 0.00 0.00 0.00 0.01 0.01 0.01 0.02 0.02 0.02 0.03 0.02 0.02 0.02 0.02 0.02 0.02 0.03 0.02 0.02 0.01 0.01 0.00 0.00 0.00 0.00 0.01 0.01 0.01 0.01 0.01 0.01 0.02 0.02 0.02
MSLP
1014.30 1014.71 1015.21 1015.70 1016.07 1016.25 1016.18 1015.87 1015.36 1014.75 1014.14 1013.61 1013.21 1012.96 1012.80 1012.67 1012.50 1012.24 1011.88 1011.45 1011.02 1010.69 1010.53 1010.59 1010.89 1011.39 1011.99 1012.63 1013.21 1013.69 1014.04 1014.28 1014.46 1014.63 1014.83 1015.08 1015.38 1015.69 1015.98 1016.22 1016.40 1016.52 1016.61 1016.69 1016.81 1016.97 1017.19 1017.44 1017.70
1014.72 1015.18 1015.67 1016.08 1016.30 1016.27 1015.95 1015.39 1014.64 1013.84 1013.08 1012.47 1012.05 1011.82 1011.72 1011.69 1011.63 1011.49 1011.25 1010.94 1010.63 1010.39 1010.32 1010.46 1010.82 1011.36 1012.01 1012.68 1013.29 1013.79 1014.17 1014.45 1014.66 1014.86 1015.08 1015.35 1015.65 1015.97 1016.26 1016.51 1016.69 1016.83 1016.94 1017.05 1017.19 1017.39 1017.63 1017.90 1018.17
1015.09 1015.56 1016.00 1016.29 1016.34 1016.10 1015.56 1014.78 1013.85 1012.90 1012.05 1011.39 1010.97 1010.77 1010.74 1010.80 1010.85 1010.83 1010.71 1010.54 1010.35 1010.24 1010.28 1010.50 1010.92 1011.50 1012.17 1012.84 1013.45 1013.96 1014.34 1014.62 1014.84 1015.04 1015.27 1015.54 1015.84 1016.15 1016.44 1016.69 1016.89 1017.05 1017.20 1017.36 1017.55 1017.79 1018.08 1018.38 1018.68
1015.39 1015.82 1016.16 1016.31 1016.19 1015.77 1015.05 1014.11 1013.07 1012.04 1011.15 1010.49 1010.08 1009.92 1009.95 1010.08 1010.21 1010.30 1010.31 1010.27 1010.23 1010.25 1010.40 1010.72 1011.20 1011.80 1012.46 1013.12 1013.69 1014.16 1014.51 1014.77 1014.98 1015.18 1015.40 1015.66 1015.96 1016.26 1016.55 1016.81 1017.03 1017.23 1017.43 1017.64 1017.90 1018.20 1018.54 1018.89 1019.22
1015.59 1015.94 1016.16 1016.16 1015.88 1015.31 1014.48 1013.47 1012.38 1011.35 1010.48 1009.84 1009.47 1009.35 1009.41 1009.57 1009.76 1009.93 1010.04 1010.13 1010.22 1010.38 1010.65 1011.06 1011.59 1012.20 1012.84 1013.45 1013.97 1014.38 1014.69 1014.92 1015.10 1015.30 1015.52 1015.78 1016.07 1016.37 1016.67 1016.94 1017.18 1017.42 1017.67 1017.94 1018.27 1018.63 1019.02 1019.42 1019.78
1015.68 1015.91 1015.99 1015.84 1015.44 1014.78 1013.90 1012.89 1011.84 1010.87 1010.07 1009.50 1009.17 1009.06 1009.13 1009.29 1009.50 1009.70 1009.89 1010.07 1010.29 1010.57 1010.95 1011.43 1012.00 1012.62 1013.23 1013.78 1014.24 1014.59 1014.85 1015.06 1015.24 1015.44 1015.67 1015.94 1016.24 1016.55 1016.86 1017.14 1017.41 1017.68 1017.96 1018.29 1018.66 1019.08 1019.51 1019.94 1020.32
1015.65 1015.74 1015.66 1015.39 1014.89 1014.19 1013.33 1012.39 1011.45 1010.61 1009.92 1009.43 1009.14 1009.04 1009.08 1009.21 1009.38 1009.58 1009.80 1010.05 1010.35 1010.73 1011.20 1011.75 1012.36 1012.97 1013.54 1014.05 1014.45 1014.77 1015.00 1015.21 1015.41 1015.64 1015.90 1016.21 1016.54 1016.87 1017.19 1017.48 1017.76 1018.04 1018.35 1018.70 1019.10 1019.54 1020.00 1020.44 1020.83
1015.52 1015.45 1015.23 1014.84 1014.28 1013.59 1012.80 1011.99 1011.21 1010.52 1009.97 1009.57 1009.32 1009.20 1009.19 1009.25 1009.36 1009.52 1009.73 1010.01 1010.36 1010.81 1011.35 1011.95 1012.58 1013.19 1013.74 1014.21 1014.59 1014.89 1015.14 1015.37 1015.62 1015.91 1016.24 1016.60 1016.97 1017.33 1017.66 1017.95 1018.23 1018.51 1018.82 1019.17 1019.58 1020.02 1020.48 1020.92 1021.30
1015.30 1015.08 1014.73 1014.25 1013.67 1013.01 1012.33 1011.67 1011.06 1010.54 1010.13 1009.81 1009.60 1009.46 1009.38 1009.35 1009.38 1009.47 1009.65 1009.92 1010.31 1010.80 1011.38 1012.01 1012.65 1013.26 1013.80 1014.26 1014.64 1014.96 1015.25 1015.55 1015.88 1016.25 1016.65 1017.08 1017.50 1017.88 1018.23 1018.53 1018.80 1019.07 1019.36 1019.70 1020.08 1020.51 1020.95 1021.38 1021.75
1015.01 1014.66 1014.20 1013.67 1013.08 1012.49 1011.92 1011.40 1010.96 1010.60 1010.31 1010.07 1009.88 1009.71 1009.56 1009.44 1009.38 1009.41 1009.53 1009.79 1010.18 1010.69 1011.29 1011.94 1012.59 1013.20 1013.75 1014.22 1014.62 1014.99 1015.34 1015.72 1016.14 1016.60 1017.09 1017.58 1018.05 1018.47 1018.82 1019.13 1019.39 1019.65 1019.93 1020.25 1020.61 1021.02 1021.44 1021.84 1022.19
1014.69 1014.24 1013.71 1013.15 1012.58 1012.04 1011.57 1011.19 1010.88 1010.64 1010.44 1010.26 1010.07 1009.87 1009.66 1009.47 1009.34 1009.30 1009.39 1009.62 1010.01 1010.52 1011.13 1011.79 1012.45 1013.06 1013.62 1014.11 1014.55 1014.97 1015.40 1015.86 1016.37 1016.91 1017.47 1018.02 1018.53 1018.98 1019.36 1019.67 1019.94 1020.20 1020.48 1020.79 1021.15 1021.54 1021.94 1022.32 1022.66
1014.36 1013.86 1013.30 1012.72 1012.17 1011.69 1011.30 1011.00 1010.78 1010.62 1010.47 1010.31 1010.12 1009.89 1009.64 1009.40 1009.22 1009.15 1009.21 1009.44 1009.82 1010.34 1010.95 1011.61 1012.27 1012.89 1013.46 1013.97 1014.46 1014.93 1015.42 1015.95 1016.53 1017.13 1017.74 1018.33 1018.87 1019.35 1019.75 1020.09 1020.39 1020.68 1020.98 1021.31 1021.68 1022.07 1022.47 1022.85 1023.18
1014.06 1013.55 1012.98 1012.41 1011.88 1011.43 1011.08 1010.82 1010.64 1010.50 1010.36 1010.20 1009.99 1009.74 1009.47 1009.21 1009.02 1008.94 1009.01 1009.24 1009.63 1010.15 1010.76 1011.42 1012.08 1012.71 1013.29 1013.84 1014.36 1014.88 1015.41 1015.99 1016.60 1017.23 1017.87 1018.47 1019.03 1019.53 1019.97 1020.35 1020.70 1021.04 1021.40 1021.78 1022.19 1022.61 1023.02 1023.40 1023.73
1013.84 1013.34 1012.78 1012.22 1011.70 1011.25 1010.90 1010.63 1010.44 1010.28 1010.13 1009.95 1009.72 1009.46 1009.18 1008.93 1008.75 1008.69 1008.77 1009.02 1009.42 1009.95 1010.57 1011.22 1011.89 1012.53 1013.13 1013.70 1014.25 1014.80 1015.37 1015.97 1016.59 1017.22 1017.85 1018.45 1019.02 1019.53 1020.01 1020.45 1020.87 1021.30 1021.74 1022.19 1022.66 1023.12 1023.56 1023.95 1024.28
1013.73 1013.23 1012.68 1012.12 1011.59 1011.12 1010.74 1010.44 1010.20 1010.01 1009.82 1009.61 1009.36 1009.10 1008.83 1008.60 1008.45 1008.42 1008.53 1008.79 1009.20 1009.73 1010.34 1010.99 1011.66 1012.31 1012.94 1013.54 1014.12 1014.70 1015.29 1015.89 1016.50 1017.12 1017.72 1018.31 1018.87 1019.40 1019.92 1020.42 1020.93 1021.45 1021.98 1022.53 1023.07 1023.58 1024.05 1024.46 1024.79
1013.73 1013.22 1012.65 1012.06 1011.50 1011.00 1010.58 1010.24 1009.96 1009.72 1009.50 1009.27 1009.02 1008.77 1008.52 1008.32 1008.19 1008.18 1008.30 1008.57 1008.96 1009.47 1010.06 1010.70 1011.36 1012.02 1012.67 1013.31 1013.93 1014.54 1015.15 1015.76 1016.37 1016.96 1017.54 1018.10 1018.65 1019.20 1019.75 1020.31 1020.90 1021.51 1022.14 1022.77 1023.37 1023.94 1024.44 1024.86 1025.19
1013.84 1013.26 1012.64 1012.02 1011.41 1010.87 1010.42 1010.04 1009.74 1009.49 1009.26 1009.04 1008.81 1008.58 1008.36 1008.18 1008.07 1008.05 1008.15 1008.37 1008.72 1009.17 1009.71 1010.31 1010.96 1011.62 1012.30 1012.97 1013.64 1014.29 1014.94 1015.57 1016.17 1016.76 1017.32 1017.87 1018.42 1018.98 1019.55 1020.17 1020.82 1021.50 1022.19 1022.89 1023.55 1024.15 1024.68 1025.11 1025.45
1014.03 1013.36 1012.65 1011.96 1011.31 1010.74 1010.26 1009.89 1009.61 1009.39 1009.21 1009.03 1008.85 1008.67 1008.48 1008.30 1008.17 1008.11 1008.14 1008.28 1008.52 1008.87 1009.32 1009.85 1010.45 1011.10 1011.78 1012.49 1013.21 1013.92 1014.61 1015.28 1015.91 1016.51 1017.08 1017.63 1018.18 1018.75 1019.35 1019.99 1020.68 1021.40 1022.14 1022.87 1023.56 1024.19 1024.74 1025.19 1025.54
1014.29 1013.49 1012.67 1011.90 1011.20 1010.62 1010.17 1009.85 1009.64 1009.51 1009.42 1009.34 1009.24 1009.11 1008.95 1008.78 1008.60 1008.46 1008.38 1008.37 1008.46 1008.65 1008.96 1009.37 1009.88 1010.48 1011.15 1011.87 1012.62 1013.39 1014.14 1014.86 1015.55 1016.19 1016.79 1017.36 1017.93 1018.51 1019.12 1019.77 1020.47 1021.20 1021.94 1022.68 1023.39 1024.04 1024.60 1025.07 1025.44
1014.61 1013.66 1012.74 1011.89 1011.16 1010.60 1010.21 1009.99 1009.91 1009.91 1009.97 1010.01 1010.02 1009.97 1009.84 1009.65 1009.41 1009.15 1008.91 1008.72 1008.61 1008.60 1008.71 1008.95 1009.32 1009.83 1010.44 1011.14 1011.90 1012.71 1013.51 1014.30 1015.04 1015.74 1016.39 1017.01 1017.61 1018.21 1018.82 1019.47 1020.16 1020.87 1021.60 1022.33 1023.03 1023.69 1024.27 1024.78 1025.19
1015.04 1013.95 1012.93 1012.02 1011.30 1010.78 1010.49 1010.40 1010.47 1010.65 1010.87 1011.06 1011.19 1011.22 1011.12 1010.91 1010.59 1010.21 1009.79 1009.39 1009.05 1008.81 1008.68 1008.71 1008.90 1009.25 1009.75 1010.38 1011.11 1011.90 1012.73 1013.57 1014.37 1015.14 1015.85 1016.53 1017.17 1017.79 1018.42 1019.06 1019.72 1020.41 1021.11 1021.81 1022.51 1023.17 1023.78 1024.33 1024.80
1015.62 1014.43 1013.35 1012.42 1011.73 1011.28 1011.10 1011.15 1011.37 1011.72 1012.09 1012.43 1012.67 1012.77 1012.70 1012.47 1012.08 1011.57 1010.99 1010.39 1009.82 1009.33 1008.96 1008.74 1008.71 1008.86 1009.19 1009.68 1010.31 1011.05 1011.86 1012.70 1013.54 1014.36 1015.14 1015.87 1016.57 1017.23 1017.87 1018.51 1019.15 1019.81 1020.48 1021.16 1021.84 1022.51 1023.16 1023.76 1024.31
1016.40 1015.19 1014.09 1013.20 1012.55 1012.19 1012.10 1012.26 1012.61 1013.08 1013.57 1014.01 1014.33 1014.48 1014.43 1014.17 1013.73 1013.12 1012.41 1011.65 1010.89 1010.18 1009.57 1009.11 1008.83 1008.74 1008.85 1009.15 1009.62 1010.24 1010.96 1011.76 1012.60 1013.45 1014.27 1015.06 1015.81 1016.51 1017.18 1017.82 1018.46 1019.10 1019.75 1020.41 1021.09 1021.77 1022.45 1023.11 1023.73
1017.45 1016.28 1015.24 1014.40 1013.83 1013.53 1013.51 1013.73 1014.14 1014.65 1015.19 1015.66 1016.01 1016.17 1016.12 1015.86 1015.38 1014.72 1013.94 1013.07 1012.17 1011.29 1010.50 1009.82 1009.30 1008.96 1008.82 1008.88 1009.13 1009.57 1010.15 1010.85 1011.64 1012.46 1013.30 1014.13 1014.92 1015.67 1016.37 1017.04 1017.68 1018.32 1018.95 1019.61 1020.29 1020.99 1021.70 1022.41 1023.09
1018.76 1017.71 1016.78 1016.04 1015.53 1015.28 1015.27 1015.48 1015.86 1016.33 1016.82 1017.25 1017.55 1017.69 1017.62 1017.35 1016.87 1016.21 1015.41 1014.51 1013.55 1012.59 1011.66 1010.81 1010.08 1009.51 1009.11 1008.91 1008.92 1009.12 1009.51 1010.06 1010.74 1011.51 1012.33 1013.16 1013.98 1014.77 1015.51 1016.20 1016.86 1017.50 1018.14 1018.80 1019.48 1020.19 1020.92 1021.66 1022.39
1020.29 1019.42 1018.65 1018.02 1017.57 1017.32 1017.27 1017.40 1017.65 1017.99 1018.34 1018.64 1018.84 1018.91 1018.80 1018.53 1018.07 1017.46 1016.71 1015.85 1014.92 1013.94 1012.96 1012.01 1011.13 1010.36 1009.73 1009.27 1009.02 1008.97 1009.13 1009.48 1010.01 1010.68 1011.43 1012.24 1013.06 1013.86 1014.63 1015.36 1016.04 1016.70 1017.35 1018.01 1018.69 1019.40 1020.14 1020.89 1021.64
1021.93 1021.28 1020.68 1020.17 1019.76 1019.48 1019.33 1019.31 1019.38 1019.50 1019.64 1019.76 1019.82 1019.78 1019.63 1019.35 1018.94 1018.41 1017.76 1017.01 1016.16 1015.25 1014.28 1013.30 1012.33 1011.41 1010.60 1009.92 1009.42 1009.12 1009.04 1009.18 1009.53 1010.05 1010.70 1011.44 1012.22 1013.02 1013.79 1014.53 1015.24 1015.91 1016.57 1017.24 1017.92 1018.62 1019.35 1020.09 1020.83
1023.52 1023.10 1022.67 1022.25 1021.87 1021.53 1021.25 1021.04 1020.88 1020.77 1020.67 1020.58 1020.47 1020.32 1020.12 1019.85 1019.50 1019.07 1018.55 1017.93 1017.22 1016.42 1015.53 1014.57 1013.58 1012.59 1011.64 1010.79 1010.09 1009.57 1009.26 1009.18 1009.32 1009.66 1010.17 1010.80 1011.51 1012.26 1013.01 1013.74 1014.45 1015.13 1015.80 1016.47 1017.15 1017.84 1018.55 1019.27 1019.99
1024.89 1024.66 1024.38 1024.03 1023.65 1023.24 1022.83 1022.43 1022.05 1021.71 1021.40 1021.12 1020.86 1020.62 1020.37 1020.12 1019.84 1019.51 1019.12 1018.65 1018.09 1017.41 1016.63 1015.75 1014.78 1013.77 1012.76 1011.80 1010.94 1010.25 1009.74 1009.45 1009.39 1009.54 1009.87 1010.35 1010.93 1011.59 1012.27 1012.97 1013.65 1014.33 1015.00 1015.67 1016.34 1017.03 1017.72 1018.41 1019.10
1025.91 1025.82 1025.63 1025.33 1024.94 1024.46 1023.93 1023.38 1022.84 1022.33 1021.86 1021.45 1021.10 1020.80 1020.54 1020.31 1020.08 1019.85 1019.57 1019.22 1018.78 1018.23 1017.56 1016.76 1015.86 1014.87 1013.85 1012.84 1011.90 1011.07 1010.41 1009.94 1009.68 1009.62 1009.75 1010.05 1010.47 1010.98 1011.56 1012.18 1012.82 1013.47 1014.14 1014.80 1015.48 1016.16 1016.85 1017.53 1018.20
Thickness
5686 5690 5692 5687 5673 5661 5670 5687 5699 5706 5712 5721 5726 5727 5726 5726 5725 5728 5744 5752 5753 5752 5750 5748 5747 5745 5744 5742 5740 5738 5737 5736 5734 5733 5731 5730 5728 5727 5725 5724 5723 5722 5720 5719 5717 5716 5714 5713 5711
5678 5681 5678 5670 5656 5651 5666 5686 5695 5706 5715 5719 5722 5724 5724 5727 5734 5737 5742 5747 5749 5748 5747 5745 5744 5742 5741 5739 5737 5735 5734 5732 5731 5729 5728 5726 5725 5723 5722 5720 5719 5717 5716 5714 5713 5711 5710 5708 5707
5670 5671 5663 5654 5649 5654 5672 5688 5694 5705 5711 5714 5714 5718 5721 5724 5730 5734 5740 5743 5744 5743 5742 5741 5740 5739 5737 5735 5734 5732 5730 5729 5727 5726 5724 5723 5721 5719 5718 5716 5714 5713 5711 5710 5708 5707 5705 5704 5702
5659 5655 5649 5644 5649 5661 5676 5689 5693 5698 5704 5708 5709 5710 5717 5724 5728 5732 5736 5738 5738 5737 5737 5736 5736 5734 5733 5731 5730 5728 5726 5725 5723 5722 5720 5719 5717 5715 5714 5712 5710 5708 5707 5705 5704 5702 5700 5699 5698
5646 5641 5636 5636 5648 5661 5672 5683 5689 5692 5696 5700 5703 5704 5709 5718 5725 5728 5730 5732 5732 5732 5732 5731 5731 5730 5728 5727 5725 5724 5722 5721 5720 5718 5716 5715 5713 5711 5709 5708 5706 5704 5703 5701 5699 5697 5696 5694 5693
5630 5630 5625 5630 5645 5659 5669 5678 5683 5686 5689 5692 5695 5697 5703 5711 5717 5720 5723 5724 5726 5726 5726 5726 5725 5724 5723 5722 5720 5719 5718 5717 5715 5714 5712 5710 5708 5707 5705 5703 5701 5699 5698 5696 5694 5692 5691 5689 5688
5620 5621 5623 5631 5640 5652 5666 5673 5675 5678 5682 5685 5691 5690 5697 5704 5710 5713 5715 5717 5718 5719 5720 5719 5719 5718 5718 5717 5716 5715 5713 5712 5711 5709 5707 5705 5704 5702 5700 5698 5696 5695 5693 5691 5689 5687 5686 5684 5682
5615 5614 5618 5624 5634 5647 5663 5668 5673 5674 5677 5684 5687 5686 5691 5699 5704 5706 5708 5709 5711 5712 5713 5713 5713 5712 5712 5711 5710 5709 5708 5707 5705 5704 5702 5700 5698 5697 5695 5693 5692 5690 5688 5686 5684 5682 5681 5679 5677
5609 5603 5610 5621 5630 5645 5658 5660 5666 5671 5672 5676 5681 5687 5693 5697 5698 5699 5699 5701 5703 5704 5706 5706 5706 5706 5706 5705 5704 5703 5702 5701 5700 5698 5696 5695 5693 5691 5689 5688 5686 5684 5683 5681 5679 5677 5675 5673 5671
5596 5598 5613 5625 5632 5642 5649 5653 5656 5660 5662 5667 5673 5680 5687 5690 5692 5693 5694 5694 5696 5698 5699 5700 5700 5700 5700 5699 5698 5697 5696 5695 5693 5692 5690 5689 5687 5685 5684 5682 5680 5679 5677 5675 5673 5671 5669 5667 5666
5591 5598 5612 5621 5629 5636 5640 5643 5649 5652 5653 5663 5670 5674 5679 5683 5685 5687 5688 5689 5690 5692 5694 5694 5695 5695 5694 5693 5692 5690 5689 5688 5687 5686 5685 5683 5681 5679 5678 5676 5674 5673 5671 5669 5667 5665 5663 5662 5660
5585 5595 5604 5613 5621 5626 5630 5635 5639 5646 5655 5664 5669 5673 5675 5677 5680 5682 5683 5683 5684 5686 5687 5687 5688 5688 5687 5686 5685 5684 5683 5682 5681 5679 5678 5677 5675 5673 5671 5670 5668 5666 5665 5663 5661 5659 5657 5656 5654
5577 5587 5596 5603 5611 5616 5621 5626 5631 5640 5649 5656 5661 5664 5667 5671 5674 5676 5677 5678 5679 5680 5680 5681 5682 5681 5681 5680 5678 5678 5677 5676 5675 5673 5672 5671 5669 5667 5665 5663 5661 5660 5658 5656 5654 5653 5651 5649 5647
5572 5578 5585 5593 5601 5607 5611 5617 5624 5634 5641 5646 5651 5655 5659 5663 5666 5668 5669 5671 5672 5674 5674 5675 5675 5675 5674 5673 5672 5671 5670 5669 5668 5667 5666 5665 5664 5661 5659 5656 5655 5653 5652 5650 5648 5646 5645 5643 5641
5563 5566 5573 5582 5590 5597 5603 5605 5616 5628 5632 5636 5642 5646 5650 5654 5658 5661 5664 5666 5667 5668 5668 5668 5668 5667 5667 5666 5665 5664 5664 5663 5662 5661 5659 5658 5657 5656 5653 5650 5648 5646 5645 5644 5642 5640 5638 5636 5634
5550 5551 5557 5574 5582 5588 5590 5595 5612 5619 5623 5626 5631 5636 5641 5645 5649 5654 5657 5658 5660 5661 5660 5661 5661 5660 5660 5659 5659 5658 5656 5656 5655 5654 5652 5652 5650 5649 5647 5644 5641 5640 5639 5637 5635 5633 5631 5628 5626
5532 5537 5548 5563 5574 5578 5580 5587 5603 5610 5614 5618 5622 5627 5632 5636 5640 5644 5648 5652 5654 5655 5654 5654 5654 5653 5652 5651 5651 5650 5649 5648 5647 5646 5645 5644 5643 5642 5640 5637 5635 5633 5632 5630 5628 5625 5623 5620 5619
5527 5532 5541 5551 5564 5567 5570 5579 5591 5599 5604 5608 5612 5617 5621 5627 5632 5635 5639 5644 5646 5647 5647 5647 5647 5646 5644 5643 5643 5641 5641 5640 5639 5638 5638 5637 5635 5634 5633 5631 5629 5627 5625 5622 5620 5618 5615 5613 5611
5525 5528 5533 5543 5556 5559 5562 5570 5579 5588 5592 5596 5602 5607 5612 5618 5622 5627 5631 5635 5637 5638 5639 5640 5640 5639 5638 5636 5635 5633 5632 5631 5631 5630 5630 5629 5628 5627 5626 5623 5621 5619 5617 5615 5613 5610 5607 5604 5603
5517 5520 5525 5534 5546 5550 5551 5559 5569 5577 5584 5591 5596 5601 5605 5609 5612 5617 5621 5626 5629 5630 5632 5632 5633 5633 5632 5631 5630 5628 5625 5623 5623 5622 5622 5621 5621 5620 5618 5616 5614 5612 5610 5607 5605 5604 5599 5596 5594
5509 5514 5520 5525 5532 5539 5543 5549 5559 5569 5575 5582 5587 5593 5596 5601 5605 5608 5612 5616 5620 5623 5625 5626 5627 5627 5625 5624 5621 5619 5616 5615 5613 5613 5613 5613 5613 5612 5611 5609 5607 5605 5604 5600 5598 5596 5593 5588 5584
5501 5512 5516 5520 5519 5521 5530 5531 5548 5556 5562 5571 5578 5582 5588 5592 5596 5602 5605 5607 5612 5615 5617 5618 5619 5619 5618 5617 5615 5614 5613 5610 5609 5607 5606 5605 5605 5604 5603 5602 5600 5598 5596 5594 5591 5589 5586 5583 5577
5494 5503 5507 5509 5507 5507 5515 5518 5533 5545 5553 5564 5571 5575 5580 5584 5589 5593 5597 5600 5603 5605 5608 5610 5610 5610 5610 5610 5609 5608 5606 5604 5602 5600 5599 5597 5597 5596 5596 5594 5592 5590 5588 5586 5584 5581 5578 5575 5571
5487 5491 5496 5496 5495 5498 5509 5511 5522 5534 5551 5559 5565 5569 5573 5576 5581 5584 5587 5591 5593 5596 5598 5599 5601 5602 5602 5601 5600 5601 5599 5596 5594 5592 5591 5589 5588 5588 5587 5586 5584 5583 5581 5579 5577 5574 5571 5568 5564
5479 5477 5478 5481 5483 5493 5506 5506 5519 5534 5544 5553 5558 5561 5565 5568 5571 5574 5577 5581 5584 5587 5588 5590 5592 5593 5593 5593 5592 5592 5592 5590 5589 5587 5585 5583 5581 5580 5579 5578 5576 5575 5573 5571 5569 5566 5563 5560 5556
5471 5473 5472 5476 5480 5487 5495 5502 5518 5527 5535 5542 5547 5550 5554 5557 5561 5565 5568 5571 5574 5576 5579 5581 5583 5584 5584 5584 5584 5584 5583 5581 5580 5579 5579 5578 5576 5574 5572 5571 5569 5568 5566 5563 5561 5559 5556 5552 5549
5464 5463 5468 5466 5467 5474 5484 5494 5508 5520 5526 5531 5535 5539 5542 5546 5550 5554 5558 5561 5564 5567 5570 5573 5574 5574 5575 5574 5575 5574 5574 5573 5572 5571 5571 5570 5568 5566 5564 5563 5561 5560 5558 5556 5553 5550 5547 5545 5541
5461 5460 5457 5458 5464 5473 5484 5488 5498 5509 5515 5520 5524 5527 5531 5535 5538 5541 5546 5550 5553 5556 5559 5562 5564 5564 5565 5565 5565 5565 5565 5564 5564 5563 5562 5561 5560 5558 5556 5554 5553 5551 5549 5547 5545 5542 5539 5536 5533
5450 5451 5454 5453 5459 5465 5472 5486 5493 5499 5506 5510 5513 5516 5519 5522 5526 5529 5534 5537 5540 5543 5547 5550 5552 5553 5554 5555 5555 5555 5555 5554 5554 5553 5553 5552 5551 5550 5548 5546 5545 5542 5541 5538 5536 5533 5531 5528 5525
5443 5447 5445 5448 5449 5451 5458 5475 5484 5486 5492 5497 5501 5505 5508 5511 5515 5518 5521 5525 5528 5531 5535 5538 5540 5542 5543 5545 5546 5545 5545 5545 5544 5544 5543 5543 5542 5541 5539 5538 5536 5534 5532 5530 5528 5526 5523 5520 5516